Flag for Ireland Weather past 2 weeks in Limerick, Ireland

Now
54 °F

Mostly cloudy.


Feels Like: 47 °F
Forecast: 52 / 54 °F
Wind: 30 mph from Southwest

Location: Shannon Airport

Current Time: Dec 22, 2014 at 7:08:47 AM

Latest Report: Dec 22, 2014 at 6:30 AM


Visibility: N/A

Pressure: 29.92 "Hg

Humidity: 88%

Dew point: 50 °F

Location of LimerickLocation

Historic Weather in Limerick — Graph

°F

Limerick temperature yesterday

Maximum temperature yesterday: 55 °F (at 11:30 AM)
Minimum temperature yesterday: 46 °F (at 12:00 AM)
Average temperature yesterday: 52 °F

Past Weeks' High & Low Weather Summary

 TemperatureHumidityPressure
High55 °F (Dec 18, 9:00 AM)100% (Dec 9, 1:00 PM)30.42 "Hg (Dec 9, 1:00 PM)
Low32 °F (Dec 12, 7:00 AM)49% (Dec 10, 7:00 AM)29.27 "Hg (Dec 12, 1:30 AM)
Average45 °F87%29.93 "Hg
* Reported Dec 7 5:00 AM — Dec 22 5:30 AM, Limerick, Weather by CustomWeather, © 2014

Note: Actual official high and low records may vary slightly from our data, if they occured in-between our weather recording intervals... More about our weather records

Advertising

Limerick weather history for previous 24 hours

 ConditionsComfort  
Time TempWeatherWind HumidityBarometerVisibility
5:30 AM
Dec 22
54 °FOvercast.31 mph88%29.92 "HgN/A
5:00 AM54 °FOvercast.30 mph88%29.92 "HgN/A
4:30 AM52 °FMostly cloudy.24 mph94%29.92 "HgN/A
3:30 AM54 °FOvercast.31 mph88%29.95 "HgN/A
3:00 AM54 °FOvercast.29 mph88%29.95 "HgN/A
2:30 AM54 °FMostly cloudy.21 mph88%29.95 "HgN/A
2:00 AM54 °FMostly cloudy.20 mph88%29.95 "HgN/A
1:30 AM54 °FMostly cloudy.23 mph88%29.98 "HgN/A
1:00 AM54 °FOvercast.23 mph88%29.98 "HgN/A
12:30 AM54 °FMostly cloudy.25 mph88%30.01 "HgN/A
12:00 AM54 °FMostly cloudy.23 mph88%30.01 "HgN/A
11:30 PM
Dec 21
54 °FPartly cloudy.20 mph88%30.01 "HgN/A
11:00 PM54 °FPartly cloudy.16 mph88%30.01 "HgN/A
10:30 PM54 °FMostly cloudy.18 mph88%30.01 "HgN/A
9:30 PM54 °FPassing clouds.16 mph88%30.04 "HgN/A
9:00 PM54 °FPartly cloudy.17 mph88%30.04 "HgN/A
8:30 PM54 °FPartly cloudy.24 mph88%30.04 "HgN/A
8:00 PM54 °FPassing clouds.25 mph94%30.07 "HgN/A
7:30 PM54 °FPartly cloudy.26 mph94%30.07 "HgN/A
7:00 PM54 °FPartly cloudy.21 mph94%30.07 "Hg3 mi
6:30 PM54 °FPassing clouds.18 mph94%30.07 "HgN/A
6:00 PM54 °FPassing clouds.18 mph94%30.07 "HgN/A
5:30 PM54 °FPassing clouds.20 mph94%30.07 "HgN/A
5:00 PM54 °FPassing clouds.20 mph88%30.07 "HgN/A
4:30 PM54 °FPassing clouds.20 mph88%30.07 "HgN/A
4:00 PM54 °FPartly sunny.20 mph88%30.07 "HgN/A
3:30 PM54 °FPartly sunny.21 mph94%30.09 "HgN/A
3:00 PM54 °FDrizzle. Partly sunny.16 mph88%30.09 "HgN/A
2:30 PM54 °FPartly sunny.15 mph88%30.09 "HgN/A
2:00 PM54 °FDrizzle. Partly sunny.13 mph88%30.09 "HgN/A
1:30 PM54 °FPartly sunny.14 mph88%30.09 "HgN/A
1:00 PM55 °FPartly sunny.15 mph82%30.09 "HgN/A
12:30 PM55 °FPartly sunny.20 mph82%30.09 "HgN/A
12:00 PM55 °FBroken clouds.17 mph82%30.12 "HgN/A
11:30 AM55 °FPartly sunny.16 mph88%30.12 "HgN/A
11:00 AM54 °FPartly sunny.15 mph88%30.15 "HgN/A
10:30 AM54 °FPartly sunny.14 mph88%30.15 "HgN/A
10:00 AM52 °FBroken clouds.14 mph94%30.15 "HgN/A
9:30 AM52 °FBroken clouds.15 mph88%30.18 "HgN/A
9:00 AM50 °FBroken clouds.10 mph94%30.15 "HgN/A
8:30 AM50 °FPartly cloudy.9 mph94%30.18 "HgN/A
8:00 AM50 °FPartly cloudy.15 mph94%30.18 "HgN/A
7:30 AM50 °FPassing clouds.17 mph94%30.18 "HgN/A
7:00 AM50 °FPartly cloudy.17 mph100%30.21 "Hg6 mi
Weather by CustomWeather, © 2014

See weather overviewHow to use our weather pages